TimeCDT,TemperatureF,Dew PointF,Humidity,Sea Level PressureIn,VisibilityMPH,Wind Direction,Wind SpeedMPH,Gust SpeedMPH,PrecipitationIn,Events,Conditions,WindDirDegrees,DateUTC
12:52 AM,39.0,34.0,82,30.19,9.0,NNE,8.1,-,N/A,,Clear,30,2014-03-29 05:52:00
1:52 AM,39.0,33.1,79,30.22,9.0,NNE,8.1,-,N/A,,Mostly Cloudy,20,2014-03-29 06:52:00
2:52 AM,36.0,32.0,86,30.23,8.0,NNW,6.9,-,N/A,,Partly Cloudy,340,2014-03-29 07:52:00
3:14 AM,34.0,30.9,89,30.22,8.0,NW,5.8,-,N/A,,Mostly Cloudy,310,2014-03-29 08:14:00
3:32 AM,32.0,30.0,92,30.22,7.0,WNW,5.8,-,N/A,,Scattered Clouds,300,2014-03-29 08:32:00
3:52 AM,34.0,30.9,89,30.24,7.0,WNW,3.5,-,N/A,,Clear,300,2014-03-29 08:52:00
4:43 AM,30.9,28.9,92,30.24,6.0,WNW,4.6,-,N/A,,Mostly Cloudy,300,2014-03-29 09:43:00
4:52 AM,30.0,28.0,92,30.25,6.0,NNW,8.1,-,N/A,,Mostly Cloudy,330,2014-03-29 09:52:00
5:08 AM,30.9,28.0,89,30.24,6.0,NNW,5.8,-,N/A,,Partly Cloudy,330,2014-03-29 10:08:00
5:52 AM,28.0,26.1,92,30.27,5.0,NNW,5.8,-,N/A,,Clear,340,2014-03-29 10:52:00
6:52 AM,30.0,27.0,88,30.28,5.0,NW,6.9,-,N/A,,Clear,310,2014-03-29 11:52:00
7:52 AM,30.0,28.0,92,30.31,4.0,NW,4.6,-,N/A,,Clear,310,2014-03-29 12:52:00
8:52 AM,36.0,30.9,82,30.32,5.0,NW,4.6,-,N/A,,Haze,320,2014-03-29 13:52:00
9:52 AM,42.1,32.0,67,30.34,8.0,North,9.2,-,N/A,,Partly Cloudy,10,2014-03-29 14:52:00
10:52 AM,45.0,28.9,53,30.35,10.0,North,8.1,-,N/A,,Clear,350,2014-03-29 15:52:00
11:52 AM,48.0,30.0,50,30.34,10.0,North,-9999.0,-,N/A,,Clear,0,2014-03-29 16:52:00
12:52 PM,50.0,30.0,46,30.31,10.0,NW,6.9,-,N/A,,Clear,310,2014-03-29 17:52:00
1:52 PM,53.1,30.9,43,30.29,10.0,WNW,8.1,-,N/A,,Clear,290,2014-03-29 18:52:00
2:52 PM,55.0,30.0,38,30.25,10.0,Calm,Calm,-,N/A,,Clear,0,2014-03-29 19:52:00
3:52 PM,57.0,30.0,36,30.23,10.0,Variable,4.6,-,N/A,,Clear,0,2014-03-29 20:52:00
4:52 PM,57.9,30.0,35,30.21,10.0,SW,5.8,-,N/A,,Clear,220,2014-03-29 21:52:00
5:52 PM,57.9,27.0,31,30.20,10.0,SSW,4.6,-,N/A,,Clear,210,2014-03-29 22:52:00
6:52 PM,55.0,30.0,38,30.20,10.0,SE,6.9,-,N/A,,Clear,130,2014-03-29 23:52:00
7:52 PM,45.0,30.9,58,30.19,7.0,SE,6.9,-,N/A,,Clear,130,2014-03-30 00:52:00
8:52 PM,45.0,30.9,58,30.21,9.0,SE,5.8,-,N/A,,Clear,140,2014-03-30 01:52:00
9:52 PM,41.0,30.0,65,30.21,7.0,SE,5.8,-,N/A,,Clear,130,2014-03-30 02:52:00
10:52 PM,41.0,30.9,67,30.21,9.0,SE,9.2,-,N/A,,Clear,130,2014-03-30 03:52:00
11:52 PM,42.1,30.9,65,30.21,8.0,ESE,4.6,-,N/A,,Scattered Clouds,120,2014-03-30 04:52:00